Regional Weather Roundup
Issued by NWS

Home | Current Version | Previous Version | Text Only | Print | Product List | Glossary On
Versions: 1 2 3 4 5 6 7 8 9 10 11 12 13 14 15 16 17 18 19 20 21 22 23 24 25 26 27 28 29 30 31 32 33 34 35 36 37 38 39 40 41 42 43 44 45 46 47 48 49 50
000
ASUS43 KDTX 011510
RWRMI
MICHIGAN HOURLY REGIONAL WEATHER ROUNDUP
NATIONAL WEATHER SERVICE DETROIT/PONTIAC MI
1000 AM EST SUN MAR 01 2015

NOTE: "FAIR" INDICATES FEW OR NO CLOUDS BELOW 12,000 FEET WITH NO
SIGNIFICANT WEATHER AND/OR OBSTRUCTION TO VISIBILITY.

MIZ047>049-052>055-059>063-066>070-074>076-081>083-011600-
SOUTHEAST LOWER MICHIGAN

CITY           SKY/WX    TMP DP  RH WIND       PRES   REMARKS
ADRIAN         LGT SNOW  17  14  88 CALM      30.37F FOG
ALMA           LGT SNOW  14  12  93 S9        30.36F
ANN ARBOR      CLOUDY    19  14  81 CALM      30.36F
BAD AXE        FLURRIES  15  10  83 S5        30.36F
DETROIT CITY   CLOUDY    19  13  77 CALM      30.38F
DETROIT        CLOUDY    20  15  81 CALM      30.38F
FLINT          MOSUNNY   19  11  70 SW6       30.36F
GROSSE ILE     FLURRIES  19  16  86 CALM      30.37F
HILLSDALE      FLURRIES  18  14  84 CALM      30.33F
HOWELL         PTSUNNY   13  10  87 CALM      30.34F

CITY           SKY/WX    TMP DP  RH WIND       PRES   REMARKS
JACKSON        PTSUNNY   17  12  80 CALM      30.35F
LAMBERTVILLE   LGT SNOW  23  18  80 CALM      30.38F
LANSING        MOSUNNY   14  10  84 S8        30.36F
LAPEER         NOT AVBL
MASON          PTSUNNY   13  10  89 CALM      30.35F
MONROE         LGT SNOW  18  16  93 CALM      30.37F
MT. CLEMENS    CLOUDY    16  12  85 CALM      30.36F
PONTIAC        PTSUNNY   17  12  80 CALM      30.34F
PORT HOPE        N/A     17   9  70 VRB7      30.35F
PORT HURON     LGT SNOW  18  14  86 S3        30.38F
TRI CITIES     MOSUNNY   17  10  74 S6        30.36F
YPSILANTI      CLOUDY    21  14  74 CALM      30.38F
$$
MIZ043>046-050>051-056>058-064>065-071>073-077>080-011600-
SOUTHWEST LOWER MICHIGAN

CITY           SKY/WX    TMP DP  RH WIND       PRES   REMARKS
BATTLE CREEK   PTSUNNY   16  11  80 S8        30.35F
BENTON HARBOR  CLOUDY    17  14  88 S7        30.38S FOG
BIG RAPIDS     LGT SNOW  15  13  89 S5        30.30F
COLDWATER      PTSUNNY   18  13  81 CALM      30.35F
HOLLAND        PTSUNNY   17  13  84 S7        30.36F FOG
GRAND RAPIDS   PTSUNNY   14  10  84 S6        30.35F FOG
KALAMAZOO      PTSUNNY   16  12  84 S5        30.36F
MARSHALL       PTSUNNY   16  11  82 CALM      30.35F
MUSKEGON       LGT SNOW  19  14  81 S5        30.35F
$$
MIZ016>042-011600-
NORTHERN LOWER MICHIGAN

CITY           SKY/WX    TMP DP  RH WIND       PRES   REMARKS
ALPENA         MOSUNNY   18   6  59 SW8       30.29F
BEAVER ISLAND  MOSUNNY   18   9  67 SW9       30.26F
BELLAIRE       PTSUNNY   20  13  74 S7        30.30S
CADILLAC       LGT SNOW  16  12  84 SW5       30.25F
CHARLEVOIX     MOSUNNY   19  12  73 CALM      30.30F
FRANKFORT      LGT SNOW  20  15  79 W10       30.30F
GAYLORD        PTSUNNY   14  10  84 SW9       30.22F
GRAYLING       MOSUNNY   16   9  75 SW5       30.27F
HARBOR SPRINGS MOSUNNY   19  12  74 SW6       30.27F
HOUGHTON LAKE  CLOUDY    14   8  77 S7        30.28F
MANISTEE       CLOUDY    19  14  79 W8        30.31F
OSCODA         PTSUNNY   17   9  70 SW9       30.33F
PELLSTON       MOSUNNY   19  10  68 W9        30.27F
TRAVERSE CITY  LGT SNOW  19  13  77 VRB6      30.29F
$$
MIZ007>008-015-011600-
EASTERN UPPER MICHIGAN

CITY           SKY/WX    TMP DP  RH WIND       PRES   REMARKS
KINROSS        CLOUDY    19  10  68 SW12      30.23F
MACKINAC ISLAN PTSUNNY   17  10  73 SW12      30.25F
NEWBERRY       SUNNY     15   6  66 SW8       30.20F
S. S. MARIE    CLOUDY    15   8  73 S8        30.23F
$$
MIZ004>006-011>014-085-011600-
CENTRAL UPPER MICHIGAN

CITY           SKY/WX    TMP DP  RH WIND       PRES   REMARKS
MANISTIQUE     SUNNY     17   6  61 SW10      30.23F
ESCANABA       MOSUNNY   14   3  62 W10       30.24F
MENOMINEE      MOSUNNY   16   7  67 W9        30.25F
SAWYER-GWINN   SUNNY     12   1  62 SW10      30.15F WCI  -1
$$
MIZ001>003-009>011-084-011600-
WESTERN UPPER MICHIGAN

CITY           SKY/WX    TMP DP  RH WIND       PRES   REMARKS
IRON MOUNTAIN  SUNNY     11   2  67 S3        30.17F
HOUGHTON       LGT SNOW  16   8  71 W10       30.10F
COPPER HARBOR    N/A     18   7  62 VRB5      30.12F
IRONWOOD       PTSUNNY   16   9  73 SW12      30.10S
$$

ABBREVIATIONS USED IN REMARKS
   TC - TEMPERATURE IN CELSIUS
  WCI - WIND CHILL INDEX
   HX - HEAT INDEX
  VSB - VISIBILITY




USA.gov is the U.S. government's official web portal to all federal, state and local government web resources and services.